Weather History for Mosinee, WI

Change the Weather History Date:

Tuesday, February 19, 2013

  Actual Average Record
Temperature  
Mean Temperature 16 °F -  
Max Temperature 28 °F 28 °F 42 °F (1998)
Min Temperature 3 °F 11 °F -7 °F (2006)
Degree Days  
Heating Degree Days 50    
Moisture  
Dew Point 6 °F    
Average Humidity 81    
Maximum Humidity 100    
Minimum Humidity 62    
Precipitation  
Precipitation 0.00 in - - ()
Sea Level Pressure  
Sea Level Pressure 29.79 in    
Wind  
Wind Speed 17 mph (WNW)    
Max Wind Speed 22 mph    
Max Gust Speed 33 mph    
Visibility 6 miles    
Events Snow    
Averages and records for this station are not official NWS values.
T = Trace of Precipitation, MM = Missing Value Source: NWS Daily Summary

Daily Weather History Graph

Daily Weather History Graph

Search for Another Location

Airport:

Trip Planner

Search our weather history database for the weather conditions in past years. The results will help you decide how hot, cold, wet, or windy it might be!

Date:

Astronomy

Feb. 19, 2013 Rise Set
Actual Time 6:52 AM CST 5:33 PM CST
Civil Twilight 6:22 AM CST 6:02 PM CST
Nautical Twilight 5:48 AM CST 6:36 PM CST
Astronomical Twilight 5:14 AM CST 7:10 PM CST
Moon 11:56 AM CST (2/19) 2:32 AM CST (2/19)
Length of Visible Light 11h 40m
Length of Day
10h 40m
Waxing Gibbous, 67% of the Moon is Illuminated
Feb 19
Waxing Gibbous
Feb 25
Full
Mar 4
Last Quarter
Mar 11
New
Mar 19
First Quarter

Hourly Weather History & Observations

Time (CST) Temp. Windchill Dew Point Humidity Pressure Visibility Wind Dir Wind Speed Gust Speed Precip Events Conditions
12:15 AM 26.6 °F 15.7 °F 24.8 °F 93% 29.47 in 10.0 mi West 12.7 mph - N/A   Overcast
12:55 AM 26.6 °F 13.8 °F 26.6 °F 100% 29.49 in 5.0 mi WNW 17.3 mph - N/A   Overcast
1:15 AM 28.4 °F 18.0 °F 26.6 °F 93% 29.48 in 7.0 mi WNW 12.7 mph 18.4 mph N/A   Overcast
1:35 AM 26.6 °F 15.7 °F 24.8 °F 93% 29.48 in 7.0 mi West 12.7 mph 16.1 mph N/A   Overcast
1:55 AM 23.0 °F 8.7 °F 23.0 °F 100% 29.49 in 7.0 mi WNW 18.4 mph 28.8 mph N/A Snow Light Snow
2:15 AM 23.0 °F 8.0 °F 23.0 °F 100% 29.48 in 7.0 mi WNW 20.7 mph 29.9 mph N/A Snow Light Snow
2:35 AM 21.2 °F 6.4 °F 21.2 °F 100% 29.49 in 3.0 mi WNW 18.4 mph 27.6 mph N/A Snow Light Snow
2:55 AM 21.2 °F 5.6 °F 19.4 °F 93% 29.50 in 4.0 mi WNW 20.7 mph 26.5 mph N/A Snow Light Snow
3:15 AM 21.2 °F 5.2 °F 19.4 °F 93% 29.51 in 3.0 mi WNW 21.9 mph 25.3 mph N/A Snow Light Snow
3:35 AM 19.4 °F 4.1 °F 17.6 °F 93% 29.52 in 5.0 mi WNW 18.4 mph 25.3 mph N/A Snow Light Snow
3:55 AM 19.4 °F 4.1 °F 15.8 °F 86% 29.53 in 2.0 mi WNW 18.4 mph 31.1 mph N/A Snow Light Snow
4:15 AM 19.4 °F 4.1 °F 15.8 °F 86% 29.54 in 1.5 mi WNW 18.4 mph 27.6 mph N/A Snow Light Snow
4:35 AM 17.6 °F 1.7 °F 15.8 °F 93% 29.55 in 1.5 mi WNW 18.4 mph 29.9 mph N/A Snow Light Snow
5:45 AM 14.0 °F -3.4 °F 10.4 °F 86% 29.60 in 2.0 mi WNW 19.6 mph 29.9 mph N/A Snow Light Snow
6:45 AM 10.4 °F -5.4 °F 8.6 °F 92% 29.64 in 1.5 mi WNW 13.8 mph 29.9 mph N/A Snow Light Snow
7:45 AM 10.4 °F -7.7 °F 6.8 °F 85% 29.68 in 2.0 mi WNW 18.4 mph 26.5 mph N/A Snow Light Snow
8:50 AM 8.6 °F -11.4 °F 3.2 °F 79% 29.71 in 1.0 mi WNW 21.9 mph 29.9 mph N/A Snow Light Snow
9:45 AM 6.8 °F -11.3 °F 3.2 °F 85% 29.74 in 1.0 mi WNW 16.1 mph 29.9 mph N/A Snow Light Snow
10:04 AM 6.8 °F -11.8 °F 3.2 °F 85% 29.74 in 1.2 mi WNW 17.3 mph 28.8 mph N/A Snow Light Snow
10:45 AM 5.0 °F -15.7 °F 1.4 °F 85% 29.77 in 1.2 mi WNW 20.7 mph 33.4 mph N/A Snow Light Snow
11:45 AM 6.8 °F -12.9 °F 1.4 °F 79% 29.80 in 1.2 mi WNW 19.6 mph 31.1 mph N/A Snow Light Snow
12:45 PM 5.0 °F -14.7 °F -0.4 °F 78% 29.82 in 2.0 mi West 18.4 mph 31.1 mph N/A Snow Light Snow
1:10 PM 6.8 °F -13.8 °F -0.4 °F 72% 29.84 in 7.0 mi West 21.9 mph 27.6 mph N/A   Haze
1:45 PM 6.8 °F -11.3 °F -2.2 °F 67% 29.85 in 10.0 mi WNW 16.1 mph 29.9 mph N/A   Mostly Cloudy
2:45 PM 6.8 °F -12.9 °F -0.4 °F 72% 29.88 in 10.0 mi WNW 19.6 mph 26.5 mph N/A   Scattered Clouds
3:45 PM 8.6 °F -11.4 °F -2.2 °F 62% 29.92 in 10.0 mi WNW 21.9 mph 26.5 mph N/A   Clear
4:50 PM 8.6 °F -10.0 °F -2.2 °F 62% 29.95 in 10.0 mi WNW 18.4 mph 27.6 mph N/A   Clear
6:45 PM 6.8 °F -13.4 °F -0.4 °F 72% 30.03 in 10.0 mi NW 20.7 mph 28.8 mph N/A   Overcast
7:50 PM 5.0 °F -13.6 °F -2.2 °F 72% 30.05 in 10.0 mi WNW 16.1 mph 20.7 mph N/A   Clear
8:45 PM 3.2 °F -15.3 °F -4.0 °F 72% 30.06 in 10.0 mi WNW 15.0 mph 21.9 mph N/A   Clear
9:15 PM 5.0 °F -13.0 °F -4.0 °F 66% 30.07 in 10.0 mi WNW 15.0 mph 19.6 mph N/A   Clear
9:35 PM 5.0 °F -13.6 °F -4.0 °F 66% 30.08 in 10.0 mi WNW 16.1 mph 20.7 mph N/A   Clear
9:45 PM 3.2 °F -15.9 °F -4.0 °F 72% 30.09 in 10.0 mi WNW 16.1 mph 20.7 mph N/A   Clear
9:55 PM 3.2 °F -15.9 °F -4.0 °F 72% 30.09 in 10.0 mi WNW 16.1 mph 21.9 mph N/A   Clear
10:15 PM 3.2 °F -15.3 °F -4.0 °F 72% 30.09 in 10.0 mi WNW 15.0 mph 20.7 mph N/A   Clear
10:35 PM 3.2 °F -14.6 °F -4.0 °F 72% 30.10 in 10.0 mi WNW 13.8 mph - N/A   Clear
10:55 PM 3.2 °F -13.9 °F -4.0 °F 72% 30.10 in 10.0 mi WNW 12.7 mph 19.6 mph N/A   Clear
11:15 PM 3.2 °F -13.9 °F -4.0 °F 72% 30.11 in 10.0 mi WNW 12.7 mph 18.4 mph N/A   Clear
11:35 PM 3.2 °F -13.9 °F -4.0 °F 72% 30.11 in 10.0 mi WNW 12.7 mph 17.3 mph N/A   Clear
11:55 PM 3.2 °F -13.9 °F -2.2 °F 78% 30.11 in 10.0 mi WNW 12.7 mph 18.4 mph N/A   Clear